| time (UTC) | temp C | wind direction | speed KPH | gust KPH | rain 1hr cm | rain 24hr cm | rain mn cm | humidity % | barometer mb |
| 20260507093503 | 13 | 6 | 17.7 | 27.4 | 0.00 | 0.00 | 0.00 | 45 | 1015.5 |
| 20260507093005 | 13 | 1 | 19.3 | 27.4 | 0.00 | 0.00 | 0.00 | 44 | 1015.4 |
| 20260507092504 | 13 | 4 | 17.7 | 25.7 | 0.00 | 0.00 | 0.00 | 44 | 1015.5 |
| 20260507092004 | 13 | 14 | 14.5 | 25.7 | 0.00 | 0.00 | 0.00 | 45 | 1015.4 |
| 20260507091505 | 13 | 16 | 12.9 | 24.1 | 0.00 | 0.00 | 0.00 | 46 | 1015.5 |
| 20260507091004 | 13 | 21 | 9.7 | 20.9 | 0.00 | 0.00 | 0.00 | 46 | 1015.4 |
| 20260507090504 | 13 | 32 | 8.0 | 19.3 | 0.00 | 0.00 | 0.00 | 40 | 1015.4 |
| 20260507090005 | 13 | 23 | 9.7 | 25.7 | 0.00 | 0.00 | 0.00 | 40 | 1015.5 |
| 20260507085504 | 13 | 22 | 8.0 | 25.7 | 0.00 | 0.00 | 0.00 | 41 | 1015.5 |
| 20260507085004 | 13 | 39 | 6.4 | 14.5 | 0.00 | 0.00 | 0.00 | 33 | 1015.5 |
| 20260507084504 | 13 | 67 | 8.0 | 17.7 | 0.00 | 0.00 | 0.00 | 34 | 1015.4 |
| 20260507084004 | 13 | 85 | 6.4 | 17.7 | 0.00 | 0.00 | 0.00 | 32 | 1015.4 |
| 20260507083504 | 12 | 91 | 4.8 | 14.5 | 0.00 | 0.00 | 0.00 | 33 | 1015.4 |
| 20260507083004 | 12 | 102 | 9.7 | 20.9 | 0.00 | 0.00 | 0.00 | 29 | 1015.5 |
| 20260507082504 | 12 | 96 | 8.0 | 20.9 | 0.00 | 0.00 | 0.00 | 30 | 1015.5 |
| 20260507082006 | 12 | 74 | 6.4 | 19.3 | 0.00 | 0.00 | 0.00 | 31 | 1015.5 |
| 20260507081504 | 12 | 74 | 6.4 | 19.3 | 0.00 | 0.00 | 0.00 | 31 | 1015.6 |
| 20260507081004 | 12 | 64 | 6.4 | 17.7 | 0.00 | 0.00 | 0.00 | 32 | 1015.6 |
| 20260507080504 | 12 | 60 | 8.0 | 17.7 | 0.00 | 0.00 | 0.00 | 32 | 1015.6 |
| 20260507080106 | 12 | 69 | 9.7 | 24.1 | 0.00 | 0.00 | 0.00 | 34 | 1015.7 |
| 20260507075504 | 12 | 86 | 8.0 | 24.1 | 0.00 | 0.00 | 0.00 | 32 | 1015.7 |
| 20260507075004 | 12 | 71 | 9.7 | 20.9 | 0.00 | 0.00 | 0.00 | 36 | 1015.7 |
| 20260507074503 | 12 | 72 | 9.7 | 20.9 | 0.00 | 0.00 | 0.00 | 34 | 1015.8 |
| 20260507074003 | 12 | 94 | 8.0 | 20.9 | 0.00 | 0.00 | 0.00 | 35 | 1015.7 |
| 20260507073503 | 12 | 89 | 8.0 | 17.7 | 0.00 | 0.00 | 0.00 | 38 | 1015.7 |
| 20260507073006 | 12 | 71 | 6.4 | 16.1 | 0.00 | 0.00 | 0.00 | 37 | 1015.7 |
| 20260507072503 | 11 | 59 | 6.4 | 16.1 | 0.00 | 0.00 | 0.00 | 37 | 1015.8 |
| 20260507072004 | 11 | 51 | 6.4 | 14.5 | 0.00 | 0.00 | 0.00 | 37 | 1015.8 |
| 20260507071504 | 11 | 65 | 4.8 | 14.5 | 0.00 | 0.00 | 0.00 | 38 | 1016.0 |
| 20260507071003 | 11 | 93 | 4.8 | 11.3 | 0.00 | 0.00 | 0.00 | 39 | 1016.0 |
| 20260507070503 | 11 | 87 | 4.8 | 14.5 | 0.00 | 0.00 | 0.00 | 39 | 1015.8 |
| 20260507070107 | 11 | 75 | 6.4 | 14.5 | 0.00 | 0.00 | 0.00 | 43 | 1015.8 |
| 20260507065503 | 11 | 85 | 6.4 | 14.5 | 0.00 | 0.00 | 0.00 | 42 | 1015.8 |
| 20260507065003 | 10 | 84 | 6.4 | 16.1 | 0.00 | 0.00 | 0.00 | 42 | 1016.0 |
| 20260507064504 | 10 | 76 | 6.4 | 19.3 | 0.00 | 0.00 | 0.00 | 40 | 1015.9 |
| 20260507064003 | 10 | 87 | 8.0 | 19.3 | 0.00 | 0.00 | 0.00 | 42 | 1015.8 |
| 20260507063606 | 10 | 98 | 9.7 | 16.1 | 0.00 | 0.00 | 0.00 | 41 | 1015.8 |
| 20260507063005 | 10 | 100 | 9.7 | 17.7 | 0.00 | 0.00 | 0.00 | 40 | 1015.9 |
| 20260507062606 | 10 | 97 | 8.0 | 17.7 | 0.00 | 0.00 | 0.00 | 40 | 1015.8 |
| 20260507062004 | 10 | 92 | 8.0 | 16.1 | 0.00 | 0.00 | 0.00 | 43 | 1015.7 |
| 20260507061503 | 10 | 75 | 6.4 | 17.7 | 0.00 | 0.00 | 0.00 | 42 | 1015.8 |
| 20260507061003 | 10 | 75 | 6.4 | 17.7 | 0.00 | 0.00 | 0.00 | 44 | 1015.9 |
| 20260507060503 | 10 | 87 | 6.4 | 12.9 | 0.00 | 0.00 | 0.00 | 49 | 1015.9 |
| 20260507060106 | 10 | 76 | 6.4 | 12.9 | 0.00 | 0.00 | 0.00 | 48 | 1015.8 |
| 20260507055503 | 10 | 70 | 4.8 | 16.1 | 0.00 | 0.00 | 0.00 | 48 | 1015.8 |
| 20260507055109 | 10 | 81 | 4.8 | 16.1 | 0.00 | 0.00 | 0.00 | 53 | 1015.7 |
| 20260507054503 | 9 | 96 | 4.8 | 14.5 | 0.00 | 0.00 | 0.00 | 55 | 1015.7 |
| 20260507054003 | 9 | 100 | 8.0 | 16.1 | 0.00 | 0.00 | 0.00 | 54 | 1015.7 |
| 20260507053504 | 9 | 104 | 8.0 | 17.7 | 0.00 | 0.00 | 0.00 | 52 | 1015.7 |
| 20260507053005 | 9 | 96 | 4.8 | 17.7 | 0.00 | 0.00 | 0.00 | 55 | 1015.6 |
| 20260507052504 | 8 | 88 | 3.2 | 11.3 | 0.00 | 0.00 | 0.00 | 61 | 1015.7 |
| 20260507052004 | 8 | 98 | 4.8 | 12.9 | 0.00 | 0.00 | 0.00 | 61 | 1015.6 |
| 20260507051504 | 8 | 91 | 4.8 | 12.9 | 0.00 | 0.00 | 0.00 | 63 | 1015.5 |
| 20260507051004 | 7 | 92 | 4.8 | 12.9 | 0.00 | 0.00 | 0.00 | 62 | 1015.5 |
| 20260507050504 | 7 | 98 | 4.8 | 14.5 | 0.00 | 0.00 | 0.00 | 63 | 1015.5 |
| 20260507050004 | 7 | 99 | 4.8 | 14.5 | 0.00 | 0.00 | 0.00 | 63 | 1015.5 |
| 20260507045504 | 7 | 101 | 4.8 | 12.9 | 0.00 | 0.00 | 0.00 | 67 | 1015.5 |
| 20260507045107 | 6 | 101 | 4.8 | 12.9 | 0.00 | 0.00 | 0.00 | 68 | 1015.5 |
| 20260507044607 | 6 | 97 | 4.8 | 12.9 | 0.00 | 0.00 | 0.00 | 70 | 1015.5 |
| 20260507044004 | 5 | 99 | 3.2 | 9.7 | 0.00 | 0.00 | 0.00 | 73 | 1015.5 |
| 20260507043504 | 5 | 92 | 3.2 | 9.7 | 0.00 | 0.00 | 0.00 | 74 | 1015.4 |
| 20260507043004 | 4 | 85 | 3.2 | 8.0 | 0.00 | 0.00 | 0.00 | 76 | 1015.6 |
| 20260507042504 | 4 | 88 | 1.6 | 8.0 | 0.00 | 0.00 | 0.00 | 78 | 1015.5 |
| 20260507042107 | 3 | 91 | 1.6 | 6.4 | 0.00 | 0.00 | 0.00 | 78 | 1015.6 |
| 20260507041504 | 3 | 91 | 1.6 | 4.8 | 0.00 | 0.00 | 0.00 | 78 | 1015.5 |
| 20260507041004 | 3 | 92 | 1.6 | 6.4 | 0.00 | 0.00 | 0.00 | 79 | 1015.5 |
| 20260507040504 | 2 | 95 | 1.6 | 6.4 | 0.00 | 0.00 | 0.00 | 79 | 1015.5 |
| 20260507040005 | 2 | 97 | 3.2 | 6.4 | 0.00 | 0.00 | 0.00 | 79 | 1015.4 |
| 20260507035607 | 2 | 97 | 3.2 | 6.4 | 0.00 | 0.00 | 0.00 | 79 | 1015.4 |
| 20260507035004 | 2 | 97 | 1.6 | 6.4 | 0.00 | 0.00 | 0.00 | 79 | 1015.3 |
| 20260507034607 | 2 | 98 | 1.6 | 6.4 | 0.00 | 0.00 | 0.00 | 79 | 1015.3 |
| 20260507034107 | 2 | 98 | 3.2 | 6.4 | 0.00 | 0.00 | 0.00 | 79 | 1015.4 |
| 20260507033503 | 2 | 98 | 3.2 | 9.7 | 0.00 | 0.00 | 0.00 | 79 | 1015.4 |
| 20260507033003 | 2 | 98 | 3.2 | 9.7 | 0.00 | 0.00 | 0.00 | 80 | 1015.3 |
| 20260507032504 | 2 | 96 | 3.2 | 11.3 | 0.00 | 0.00 | 0.00 | 80 | 1015.3 |
| 20260507032003 | 2 | 95 | 4.8 | 11.3 | 0.00 | 0.00 | 0.00 | 80 | 1015.1 |
| 20260507031503 | 2 | 97 | 4.8 | 11.3 | 0.00 | 0.00 | 0.00 | 81 | 1015.2 |
| 20260507031003 | 2 | 97 | 4.8 | 11.3 | 0.00 | 0.00 | 0.00 | 81 | 1015.1 |
| 20260507030503 | 1 | 94 | 3.2 | 11.3 | 0.00 | 0.00 | 0.00 | 82 | 1015.2 |
| 20260507030003 | 1 | 94 | 3.2 | 9.7 | 0.00 | 0.00 | 0.00 | 82 | 1015.2 |
| 20260507025504 | 1 | 95 | 3.2 | 9.7 | 0.00 | 0.00 | 0.00 | 82 | 1015.1 |
| 20260507025003 | 1 | 96 | 3.2 | 6.4 | 0.00 | 0.00 | 0.00 | 81 | 1015.2 |
| 20260507024503 | 1 | 95 | 3.2 | 9.7 | 0.00 | 0.00 | 0.00 | 81 | 1015.3 |
| 20260507024003 | 1 | 102 | 3.2 | 9.7 | 0.00 | 0.00 | 0.00 | 82 | 1015.2 |
| 20260507023606 | 1 | 110 | 4.8 | 9.7 | 0.00 | 0.00 | 0.00 | 82 | 1015.2 |
| 20260507023003 | 1 | 107 | 4.8 | 11.3 | 0.00 | 0.00 | 0.00 | 82 | 1015.3 |
| 20260507022503 | 1 | 102 | 4.8 | 11.3 | 0.00 | 0.00 | 0.00 | 82 | 1015.2 |
| 20260507022106 | 1 | 97 | 3.2 | 9.7 | 0.00 | 0.00 | 0.00 | 82 | 1015.2 |
| 20260507021503 | 1 | 91 | 3.2 | 4.8 | 0.00 | 0.00 | 0.00 | 81 | 1015.0 |
| 20260507021003 | 1 | 102 | 3.2 | 6.4 | 0.00 | 0.00 | 0.00 | 81 | 1015.1 |
| 20260507020503 | 1 | 106 | 3.2 | 6.4 | 0.00 | 0.00 | 0.00 | 80 | 1015.1 |
| 20260507020003 | 1 | 107 | 3.2 | 6.4 | 0.00 | 0.00 | 0.00 | 80 | 1015.1 |
| 20260507015503 | 2 | 107 | 3.2 | 6.4 | 0.00 | 0.00 | 0.00 | 80 | 1015.2 |
| 20260507015004 | 2 | 107 | 3.2 | 9.7 | 0.00 | 0.00 | 0.00 | 80 | 1015.1 |
| 20260507014504 | 2 | 109 | 3.2 | 9.7 | 0.00 | 0.00 | 0.00 | 80 | 1015.3 |
| 20260507014004 | 2 | 111 | 3.2 | 9.7 | 0.00 | 0.00 | 0.00 | 79 | 1015.1 |
| 20260507013504 | 2 | 113 | 3.2 | 6.4 | 0.00 | 0.00 | 0.00 | 79 | 1015.1 |
| 20260507013004 | 2 | 111 | 3.2 | 11.3 | 0.00 | 0.00 | 0.00 | 79 | 1015.1 |
| 20260507012607 | 2 | 111 | 4.8 | 11.3 | 0.00 | 0.00 | 0.00 | 79 | 1015.1 |
| 20260507012004 | 2 | 115 | 4.8 | 11.3 | 0.00 | 0.00 | 0.00 | 79 | 1015.2 |
| 20260507011504 | 2 | 101 | 4.8 | 11.3 | 0.00 | 0.00 | 0.00 | 80 | 1015.1 |
| 20260507011004 | 2 | 73 | 3.2 | 9.7 | 0.00 | 0.00 | 0.00 | 81 | 1014.9 |
| 20260507010607 | 2 | 76 | 3.2 | 9.7 | 0.00 | 0.00 | 0.00 | 81 | 1014.9 |
| 20260507010004 | 2 | 68 | 4.8 | 8.0 | 0.00 | 0.00 | 0.00 | 81 | 1014.8 |
| 20260507005504 | 2 | 70 | 3.2 | 8.0 | 0.00 | 0.00 | 0.00 | 81 | 1014.8 |
| 20260507005004 | 2 | 86 | 3.2 | 6.4 | 0.00 | 0.00 | 0.00 | 81 | 1014.8 |
| 20260507004504 | 2 | 92 | 1.6 | 6.4 | 0.00 | 0.00 | 0.00 | 81 | 1014.8 |
| 20260507004004 | 3 | 95 | 1.6 | 4.8 | 0.00 | 0.00 | 0.00 | 81 | 1014.9 |
| 20260507003504 | 3 | 96 | 1.6 | 4.8 | 0.00 | 0.00 | 0.00 | 81 | 1014.9 |
| 20260507003107 | 3 | 97 | 1.6 | 4.8 | 0.00 | 0.00 | 0.00 | 80 | 1014.9 |
| 20260507002504 | 3 | 98 | 1.6 | 6.4 | 0.00 | 0.00 | 0.00 | 80 | 1015.0 |
| 20260507002004 | 3 | 97 | 3.2 | 6.4 | 0.00 | 0.00 | 0.00 | 80 | 1014.9 |
| 20260507001504 | 3 | 96 | 3.2 | 9.7 | 0.00 | 0.00 | 0.00 | 80 | 1014.9 |
| 20260507001004 | 3 | 94 | 3.2 | 9.7 | 0.00 | 0.00 | 0.00 | 79 | 1015.0 |
| 20260507000607 | 3 | 94 | 3.2 | 9.7 | 0.00 | 0.00 | 0.00 | 79 | 1014.9 |
| 20260507000004 | 3 | 87 | 3.2 | 9.7 | 0.00 | 0.00 | 0.00 | 79 | 1015.0 |
| 20260506235503 | 3 | 87 | 3.2 | 9.7 | 0.00 | 0.00 | 0.00 | 79 | 1015.0 |
| 20260506235003 | 3 | 93 | 3.2 | 9.7 | 0.00 | 0.00 | 0.00 | 79 | 1014.9 |
| 20260506234504 | 3 | 92 | 3.2 | 9.7 | 0.00 | 0.00 | 0.00 | 80 | 1014.8 |
| 20260506234003 | 3 | 86 | 3.2 | 8.0 | 0.00 | 0.00 | 0.00 | 80 | 1014.8 |
| 20260506233504 | 3 | 82 | 3.2 | 8.0 | 0.00 | 0.00 | 0.00 | 80 | 1014.8 |
| 20260506233003 | 3 | 82 | 3.2 | 6.4 | 0.00 | 0.00 | 0.00 | 80 | 1014.7 |
| 20260506232503 | 3 | 84 | 3.2 | 6.4 | 0.00 | 0.00 | 0.00 | 80 | 1014.7 |
| 20260506232003 | 3 | 85 | 1.6 | 4.8 | 0.00 | 0.00 | 0.00 | 79 | 1014.7 |
| 20260506231504 | 3 | 85 | 1.6 | 4.8 | 0.00 | 0.00 | 0.00 | 79 | 1014.8 |
| 20260506231003 | 3 | 85 | 1.6 | 4.8 | 0.00 | 0.00 | 0.00 | 79 | 1015.0 |
| 20260506230004 | 3 | 90 | 3.2 | 6.4 | 0.00 | 0.00 | 0.00 | 79 | 1014.8 |
| 20260506225504 | 3 | 96 | 3.2 | 6.4 | 0.00 | 0.00 | 0.00 | 79 | 1014.9 |
| 20260506225005 | 3 | 98 | 3.2 | 6.4 | 0.00 | 0.00 | 0.00 | 79 | 1014.9 |
| 20260506224607 | 3 | 98 | 3.2 | 4.8 | 0.00 | 0.00 | 0.00 | 79 | 1014.9 |
| 20260506224004 | 3 | 98 | 3.2 | 6.4 | 0.00 | 0.00 | 0.00 | 79 | 1014.9 |
| 20260506223504 | 3 | 98 | 3.2 | 6.4 | 0.00 | 0.00 | 0.00 | 80 | 1014.9 |
| 20260506223004 | 3 | 98 | 3.2 | 4.8 | 0.00 | 0.00 | 0.00 | 80 | 1014.9 |
| 20260506222504 | 3 | 99 | 1.6 | 4.8 | 0.00 | 0.00 | 0.00 | 80 | 1014.9 |
| 20260506222004 | 3 | 99 | 1.6 | 3.2 | 0.00 | 0.00 | 0.00 | 80 | 1014.9 |
| 20260506221504 | 3 | 99 | 1.6 | 3.2 | 0.00 | 0.00 | 0.00 | 80 | 1015.0 |
| 20260506221003 | 3 | 99 | 1.6 | 4.8 | 0.00 | 0.00 | 0.00 | 80 | 1014.9 |
| 20260506220504 | 3 | 99 | 1.6 | 4.8 | 0.00 | 0.00 | 0.00 | 80 | 1014.9 |
| 20260506220004 | 3 | 95 | 3.2 | 6.4 | 0.00 | 0.00 | 0.00 | 79 | 1014.9 |
| 20260506215504 | 3 | 90 | 3.2 | 6.4 | 0.00 | 0.00 | 0.00 | 79 | 1014.9 |
| 20260506215004 | 3 | 85 | 3.2 | 4.8 | 0.00 | 0.00 | 0.00 | 78 | 1014.9 |
| 20260506214504 | 3 | 81 | 1.6 | 6.4 | 0.00 | 0.00 | 0.00 | 78 | 1014.8 |
| 20260506214003 | 4 | 79 | 3.2 | 6.4 | 0.00 | 0.00 | 0.00 | 78 | 1014.8 |
| 20260506213503 | 4 | 81 | 3.2 | 8.0 | 0.00 | 0.00 | 0.00 | 78 | 1014.8 |
| 20260506213004 | 4 | 76 | 1.6 | 8.0 | 0.00 | 0.00 | 0.00 | 77 | 1014.8 |
| 20260506212503 | 4 | 67 | 1.6 | 6.4 | 0.00 | 0.00 | 0.00 | 77 | 1014.8 |
| 20260506212003 | 4 | 64 | 1.6 | 6.4 | 0.00 | 0.00 | 0.00 | 76 | 1014.7 |
| 20260506211503 | 4 | 63 | 1.6 | 4.8 | 0.00 | 0.00 | 0.00 | 76 | 1014.7 |
| 20260506211003 | 4 | 63 | 1.6 | 6.4 | 0.00 | 0.00 | 0.00 | 76 | 1014.9 |
| 20260506210504 | 4 | 65 | 3.2 | 6.4 | 0.00 | 0.00 | 0.00 | 76 | 1014.7 |
| 20260506210003 | 4 | 68 | 3.2 | 6.4 | 0.00 | 0.00 | 0.00 | 76 | 1014.7 |
| 20260506205503 | 4 | 65 | 4.8 | 8.0 | 0.00 | 0.00 | 0.00 | 76 | 1014.7 |
| 20260506205003 | 4 | 60 | 4.8 | 8.0 | 0.00 | 0.00 | 0.00 | 77 | 1014.7 |
| 20260506204503 | 4 | 58 | 3.2 | 8.0 | 0.00 | 0.00 | 0.00 | 77 | 1014.8 |
| 20260506204003 | 4 | 59 | 4.8 | 6.4 | 0.00 | 0.00 | 0.00 | 77 | 1014.7 |
| 20260506203503 | 4 | 63 | 3.2 | 8.0 | 0.00 | 0.00 | 0.00 | 78 | 1014.7 |
| 20260506203106 | 4 | 61 | 3.2 | 8.0 | 0.00 | 0.00 | 0.00 | 78 | 1014.8 |
| 20260506202503 | 4 | 55 | 1.6 | 6.4 | 0.00 | 0.00 | 0.00 | 78 | 1014.7 |
| 20260506202003 | 4 | 55 | 1.6 | 4.8 | 0.00 | 0.00 | 0.00 | 78 | 1014.7 |
| 20260506201503 | 4 | 55 | 1.6 | 3.2 | 0.00 | 0.00 | 0.00 | 78 | 1014.8 |
| 20260506201003 | 4 | 55 | 1.6 | 4.8 | 0.00 | 0.00 | 0.00 | 78 | 1014.8 |
| 20260506200606 | 4 | 54 | 1.6 | 4.8 | 0.00 | 0.00 | 0.00 | 78 | 1014.8 |
| 20260506200003 | 4 | 53 | 1.6 | 4.8 | 0.00 | 0.00 | 0.00 | 78 | 1014.9 |
| 20260506195607 | 5 | 53 | 3.2 | 6.4 | 0.00 | 0.00 | 0.00 | 78 | 1014.8 |
| 20260506195005 | 5 | 51 | 3.2 | 6.4 | 0.00 | 0.00 | 0.00 | 78 | 1014.9 |
| 20260506194504 | 5 | 50 | 3.2 | 6.4 | 0.00 | 0.00 | 0.00 | 77 | 1014.9 |
| 20260506194004 | 5 | 50 | 3.2 | 6.4 | 0.00 | 0.00 | 0.00 | 77 | 1014.9 |
| 20260506193504 | 5 | 50 | 3.2 | 6.4 | 0.00 | 0.00 | 0.00 | 77 | 1014.9 |
| 20260506193004 | 5 | 51 | 3.2 | 6.4 | 0.00 | 0.00 | 0.00 | 77 | 1015.0 |
| 20260506192504 | 5 | 52 | 3.2 | 6.4 | 0.00 | 0.00 | 0.00 | 77 | 1015.0 |
| 20260506192004 | 5 | 53 | 3.2 | 8.0 | 0.00 | 0.00 | 0.00 | 76 | 1015.1 |
| 20260506191607 | 5 | 54 | 3.2 | 8.0 | 0.00 | 0.00 | 0.00 | 76 | 1015.1 |
| 20260506191107 | 5 | 53 | 4.8 | 6.4 | 0.00 | 0.00 | 0.00 | 76 | 1015.1 |
| 20260506190504 | 5 | 51 | 3.2 | 6.4 | 0.00 | 0.00 | 0.00 | 75 | 1015.2 |
| 20260506190005 | 5 | 52 | 3.2 | 4.8 | 0.00 | 0.00 | 0.00 | 75 | 1015.2 |
| 20260506185504 | 5 | 52 | 3.2 | 4.8 | 0.00 | 0.00 | 0.00 | 75 | 1015.2 |
| 20260506185004 | 5 | 54 | 3.2 | 6.4 | 0.00 | 0.00 | 0.00 | 74 | 1015.2 |
| 20260506184504 | 5 | 56 | 3.2 | 6.4 | 0.00 | 0.00 | 0.00 | 74 | 1015.3 |
| 20260506184004 | 5 | 51 | 3.2 | 6.4 | 0.00 | 0.00 | 0.00 | 74 | 1015.2 |
| 20260506183503 | 5 | 46 | 3.2 | 6.4 | 0.00 | 0.00 | 0.00 | 73 | 1015.2 |
| 20260506183107 | 5 | 45 | 3.2 | 6.4 | 0.00 | 0.00 | 0.00 | 73 | 1015.2 |
| 20260506182607 | 5 | 44 | 3.2 | 6.4 | 0.00 | 0.00 | 0.00 | 72 | 1015.2 |
| 20260506182004 | 5 | 42 | 3.2 | 4.8 | 0.00 | 0.00 | 0.00 | 72 | 1015.1 |
| 20260506181503 | 5 | 31 | 3.2 | 8.0 | 0.00 | 0.00 | 0.00 | 72 | 1015.2 |
| 20260506181004 | 5 | 25 | 4.8 | 8.0 | 0.00 | 0.00 | 0.00 | 71 | 1015.1 |
| 20260506180503 | 5 | 31 | 4.8 | 8.0 | 0.00 | 0.00 | 0.00 | 71 | 1015.0 |
| 20260506180004 | 6 | 27 | 4.8 | 8.0 | 0.00 | 0.00 | 0.00 | 70 | 1015.1 |
| 20260506175503 | 6 | 13 | 4.8 | 14.5 | 0.00 | 0.00 | 0.00 | 69 | 1015.2 |
| 20260506175004 | 6 | 16 | 4.8 | 14.5 | 0.00 | 0.00 | 0.00 | 69 | 1015.2 |
| 20260506174504 | 6 | 31 | 4.8 | 8.0 | 0.00 | 0.00 | 0.00 | 68 | 1015.1 |
| 20260506174003 | 6 | 31 | 4.8 | 8.0 | 0.00 | 0.00 | 0.00 | 66 | 1015.1 |
| 20260506173503 | 6 | 18 | 4.8 | 11.3 | 0.00 | 0.00 | 0.00 | 66 | 1015.2 |
| 20260506173004 | 6 | 12 | 6.4 | 14.5 | 0.00 | 0.00 | 0.00 | 65 | 1015.2 |
| 20260506172606 | 6 | 7 | 8.0 | 14.5 | 0.00 | 0.00 | 0.00 | 65 | 1015.1 |
| 20260506172003 | 6 | 8 | 6.4 | 14.5 | 0.00 | 0.00 | 0.00 | 66 | 1015.1 |
| 20260506171504 | 6 | 14 | 4.8 | 12.9 | 0.00 | 0.00 | 0.00 | 64 | 1015.1 |
| 20260506171003 | 6 | 11 | 6.4 | 12.9 | 0.00 | 0.00 | 0.00 | 65 | 1015.2 |
| 20260506170504 | 6 | 20 | 6.4 | 14.5 | 0.00 | 0.00 | 0.00 | 65 | 1015.2 |
| 20260506170004 | 6 | 40 | 6.4 | 14.5 | 0.00 | 0.00 | 0.00 | 64 | 1015.1 |
| 20260506165503 | 7 | 35 | 6.4 | 14.5 | 0.00 | 0.00 | 0.00 | 63 | 1015.2 |
| 20260506165003 | 7 | 19 | 6.4 | 14.5 | 0.00 | 0.00 | 0.00 | 63 | 1015.2 |
| 20260506164503 | 7 | 13 | 8.0 | 14.5 | 0.00 | 0.00 | 0.00 | 63 | 1015.1 |
| 20260506164106 | 7 | 7 | 9.7 | 19.3 | 0.00 | 0.00 | 0.00 | 62 | 1015.2 |
| 20260506163503 | 7 | 8 | 11.3 | 19.3 | 0.00 | 0.00 | 0.00 | 61 | 1015.1 |
| 20260506163003 | 7 | 5 | 11.3 | 17.7 | 0.00 | 0.00 | 0.00 | 60 | 1015.2 |
| 20260506162606 | 7 | 359 | 11.3 | 17.7 | 0.00 | 0.00 | 0.00 | 60 | 1015.1 |
| 20260506162003 | 7 | 359 | 11.3 | 16.1 | 0.00 | 0.00 | 0.00 | 61 | 1015.1 |
| 20260506161503 | 8 | 3 | 11.3 | 20.9 | 0.00 | 0.00 | 0.00 | 60 | 1015.1 |
| 20260506161003 | 8 | 5 | 12.9 | 20.9 | 0.00 | 0.00 | 0.00 | 59 | 1015.1 |
| 20260506160504 | 8 | 3 | 12.9 | 20.9 | 0.00 | 0.00 | 0.00 | 59 | 1015.2 |
| 20260506160108 | 8 | 357 | 14.5 | 22.5 | 0.00 | 0.00 | 0.00 | 60 | 1015.2 |
| 20260506155504 | 8 | 357 | 16.1 | 22.5 | 0.00 | 0.00 | 0.00 | 60 | 1015.1 |
| 20260506155006 | 9 | 2 | 14.5 | 19.3 | 0.00 | 0.00 | 0.00 | 59 | 1015.2 |
| 20260506154504 | 9 | 2 | 12.9 | 19.3 | 0.00 | 0.00 | 0.00 | 59 | 1015.3 |
| 20260506154004 | 9 | 2 | 11.3 | 19.3 | 0.00 | 0.00 | 0.00 | 59 | 1015.3 |
| 20260506153504 | 8 | 360 | 14.5 | 22.5 | 0.00 | 0.00 | 0.00 | 61 | 1015.2 |
| 20260506153004 | 8 | 355 | 16.1 | 22.5 | 0.00 | 0.00 | 0.00 | 61 | 1015.3 |
| 20260506152504 | 8 | 353 | 16.1 | 22.5 | 0.00 | 0.00 | 0.00 | 63 | 1015.3 |
| 20260506152004 | 8 | 356 | 14.5 | 22.5 | 0.00 | 0.00 | 0.00 | 62 | 1015.4 |
| 20260506151504 | 8 | 359 | 14.5 | 22.5 | 0.00 | 0.00 | 0.00 | 61 | 1015.5 |
| 20260506151004 | 8 | 354 | 14.5 | 17.7 | 0.00 | 0.00 | 0.00 | 64 | 1015.4 |
| 20260506150607 | 8 | 353 | 14.5 | 20.9 | 0.00 | 0.00 | 0.00 | 66 | 1015.6 |
| 20260506150004 | 8 | 357 | 14.5 | 20.9 | 0.00 | 0.00 | 0.00 | 62 | 1015.5 |
| 20260506145504 | 8 | 356 | 14.5 | 19.3 | 0.00 | 0.00 | 0.00 | 62 | 1015.6 |
| 20260506145004 | 8 | 358 | 16.1 | 20.9 | 0.00 | 0.00 | 0.00 | 63 | 1015.6 |
| 20260506144504 | 8 | 353 | 14.5 | 20.9 | 0.00 | 0.00 | 0.00 | 63 | 1015.6 |
| 20260506144107 | 8 | 347 | 14.5 | 19.3 | 0.00 | 0.00 | 0.00 | 70 | 1015.7 |
| 20260506143504 | 8 | 344 | 14.5 | 19.3 | 0.00 | 0.00 | 0.00 | 70 | 1015.7 |
| 20260506143004 | 8 | 338 | 14.5 | 19.3 | 0.00 | 0.00 | 0.00 | 69 | 1015.7 |
| 20260506142504 | 8 | 337 | 12.9 | 17.7 | 0.00 | 0.00 | 0.00 | 71 | 1015.7 |
| 20260506142004 | 8 | 342 | 14.5 | 20.9 | 0.00 | 0.00 | 0.00 | 71 | 1015.7 |
| 20260506141503 | 8 | 341 | 16.1 | 20.9 | 0.00 | 0.00 | 0.00 | 69 | 1015.7 |
| 20260506141004 | 8 | 338 | 16.1 | 20.9 | 0.00 | 0.00 | 0.00 | 71 | 1015.8 |
| 20260506140504 | 8 | 339 | 16.1 | 22.5 | 0.00 | 0.00 | 0.00 | 73 | 1015.8 |
| 20260506140004 | 8 | 338 | 16.1 | 22.5 | 0.00 | 0.00 | 0.00 | 72 | 1015.9 |
| 20260506135504 | 8 | 332 | 16.1 | 20.9 | 0.00 | 0.00 | 0.00 | 71 | 1015.8 |
| 20260506135003 | 8 | 330 | 14.5 | 20.9 | 0.00 | 0.00 | 0.00 | 72 | 1015.9 |
| 20260506134606 | 8 | 330 | 14.5 | 19.3 | 0.00 | 0.00 | 0.00 | 71 | 1016.0 |
| 20260506134107 | 8 | 328 | 14.5 | 19.3 | 0.00 | 0.00 | 0.00 | 70 | 1016.0 |
| 20260506133504 | 8 | 328 | 14.5 | 19.3 | 0.00 | 0.00 | 0.00 | 70 | 1015.9 |
| 20260506133003 | 8 | 329 | 12.9 | 19.3 | 0.00 | 0.00 | 0.00 | 68 | 1016.0 |
| 20260506132503 | 8 | 329 | 12.9 | 17.7 | 0.00 | 0.00 | 0.00 | 68 | 1016.0 |
| 20260506132003 | 9 | 328 | 12.9 | 19.3 | 0.00 | 0.00 | 0.00 | 70 | 1016.0 |
| 20260506131503 | 9 | 327 | 12.9 | 19.3 | 0.00 | 0.00 | 0.00 | 68 | 1016.1 |
| 20260506131003 | 9 | 329 | 12.9 | 19.3 | 0.00 | 0.00 | 0.00 | 68 | 1015.9 |
| 20260506130503 | 9 | 329 | 12.9 | 19.3 | 0.00 | 0.00 | 0.00 | 68 | 1016.0 |
| 20260506130004 | 9 | 328 | 12.9 | 17.7 | 0.00 | 0.00 | 0.00 | 70 | 1015.9 |
| 20260506125503 | 8 | 328 | 11.3 | 19.3 | 0.00 | 0.00 | 0.00 | 72 | 1016.1 |
| 20260506125004 | 8 | 326 | 11.3 | 19.3 | 0.00 | 0.00 | 0.00 | 71 | 1016.1 |
| 20260506124503 | 8 | 321 | 9.7 | 16.1 | 0.00 | 0.00 | 0.00 | 71 | 1016.0 |
| 20260506124003 | 9 | 324 | 11.3 | 17.7 | 0.00 | 0.00 | 0.00 | 72 | 1016.0 |
| 20260506123503 | 9 | 323 | 11.3 | 17.7 | 0.00 | 0.00 | 0.00 | 72 | 1016.1 |
| 20260506123106 | 9 | 319 | 11.3 | 17.7 | 0.00 | 0.00 | 0.00 | 69 | 1016.0 |
| 20260506122503 | 10 | 322 | 12.9 | 20.9 | 0.00 | 0.00 | 0.00 | 66 | 1016.0 |
| 20260506122106 | 10 | 328 | 14.5 | 20.9 | 0.00 | 0.00 | 0.00 | 66 | 1015.8 |
| 20260506121503 | 10 | 330 | 16.1 | 20.9 | 0.00 | 0.00 | 0.00 | 66 | 1015.8 |
| 20260506121107 | 10 | 329 | 16.1 | 20.9 | 0.00 | 0.00 | 0.00 | 70 | 1015.8 |
| 20260506120504 | 9 | 328 | 14.5 | 20.9 | 0.00 | 0.00 | 0.00 | 69 | 1015.7 |
| 20260506120004 | 10 | 329 | 12.9 | 19.3 | 0.00 | 0.00 | 0.00 | 66 | 1015.9 |
| 20260506115504 | 10 | 331 | 12.9 | 19.3 | 0.00 | 0.00 | 0.00 | 66 | 1015.9 |
| 20260506115004 | 10 | 330 | 14.5 | 19.3 | 0.00 | 0.00 | 0.00 | 65 | 1015.9 |
| 20260506114504 | 10 | 327 | 14.5 | 19.3 | 0.00 | 0.00 | 0.00 | 66 | 1015.9 |
| 20260506114005 | 10 | 328 | 14.5 | 19.3 | 0.00 | 0.00 | 0.00 | 65 | 1015.9 |
| 20260506113504 | 11 | 330 | 12.9 | 19.3 | 0.00 | 0.00 | 0.00 | 64 | 1015.9 |
| 20260506113107 | 11 | 331 | 12.9 | 17.7 | 0.00 | 0.00 | 0.00 | 66 | 1015.9 |
| 20260506112504 | 11 | 329 | 12.9 | 17.7 | 0.00 | 0.00 | 0.00 | 66 | 1015.8 |
| 20260506112004 | 11 | 329 | 12.9 | 17.7 | 0.00 | 0.00 | 0.00 | 66 | 1016.0 |
| 20260506111504 | 11 | 331 | 12.9 | 17.7 | 0.00 | 0.00 | 0.00 | 66 | 1015.9 |
| 20260506111004 | 10 | 327 | 12.9 | 17.7 | 0.00 | 0.00 | 0.00 | 66 | 1015.9 |
| 20260506110504 | 10 | 324 | 12.9 | 17.7 | 0.00 | 0.00 | 0.00 | 67 | 1016.0 |
| 20260506110004 | 11 | 326 | 11.3 | 19.3 | 0.00 | 0.00 | 0.00 | 66 | 1016.0 |
| 20260506105504 | 11 | 324 | 11.3 | 19.3 | 0.00 | 0.00 | 0.00 | 67 | 1016.0 |
| 20260506105004 | 10 | 326 | 12.9 | 17.7 | 0.00 | 0.00 | 0.00 | 68 | 1016.1 |
| 20260506104607 | 10 | 327 | 12.9 | 17.7 | 0.00 | 0.00 | 0.00 | 69 | 1016.1 |
| 20260506104004 | 10 | 324 | 11.3 | 17.7 | 0.00 | 0.00 | 0.00 | 69 | 1016.1 |
| 20260506103504 | 10 | 319 | 9.7 | 17.7 | 0.00 | 0.00 | 0.00 | 70 | 1016.2 |
| 20260506103107 | 10 | 316 | 9.7 | 17.7 | 0.00 | 0.00 | 0.00 | 72 | 1016.2 |
| 20260506102503 | 9 | 308 | 8.0 | 14.5 | 0.00 | 0.00 | 0.00 | 69 | 1016.2 |
| 20260506102004 | 9 | 303 | 9.7 | 14.5 | 0.00 | 0.00 | 0.00 | 72 | 1016.1 |
| 20260506101504 | 8 | 295 | 9.7 | 14.5 | 0.00 | 0.00 | 0.00 | 72 | 1016.2 |
| 20260506101107 | 8 | 294 | 9.7 | 14.5 | 0.00 | 0.00 | 0.00 | 73 | 1016.2 |
| 20260506100607 | 8 | 293 | 9.7 | 14.5 | 0.00 | 0.00 | 0.00 | 73 | 1016.2 |
| 20260506100107 | 8 | 291 | 9.7 | 16.1 | 0.00 | 0.00 | 0.00 | 75 | 1016.1 |
| 20260506095504 | 8 | 281 | 11.3 | 16.1 | 0.00 | 0.00 | 0.00 | 75 | 1016.1 |
| 20260506095003 | 8 | 281 | 11.3 | 17.7 | 0.00 | 0.00 | 0.00 | 74 | 1016.1 |
| 20260506094504 | 8 | 290 | 11.3 | 17.7 | 0.00 | 0.00 | 0.00 | 73 | 1016.0 |
| 20260506094003 | 8 | 300 | 9.7 | 16.1 | 0.00 | 0.00 | 0.00 | 73 | 1016.1 |